owner,sensor,date,latitude,longitude,vertical_datum,wind_speed,wind_to_direction,wind_speed_of_gust,qcFlag 
WAVCIS,ioos:station:WAVCIS:CSI06:1,2017-12-01T00:00:00Z,28.8667,-90.4833,10.0,3.1,30.0,4.1,'1111122,1111122,1111122' 
WAVCIS,ioos:station:WAVCIS:CSI06:1,2017-12-01T01:00:00Z,28.8667,-90.4833,10.0,2.1,40.0,3.1,'1111122,1111122,1111122' 
WAVCIS,ioos:station:WAVCIS:CSI06:1,2017-12-01T02:00:00Z,28.8667,-90.4833,10.0,3.6,50.0,5.7,'1111122,1111122,1111122' 
WAVCIS,ioos:station:WAVCIS:CSI06:1,2017-12-01T03:00:00Z,28.8667,-90.4833,10.0,5.1,60.0,6.2,'1111122,1111122,1111122' 
WAVCIS,ioos:station:WAVCIS:CSI06:1,2017-12-01T04:00:00Z,28.8667,-90.4833,10.0,4.6,80.0,5.7,'1111122,1111122,1111122' 
WAVCIS,ioos:station:WAVCIS:CSI06:1,2017-12-01T05:00:00Z,28.8667,-90.4833,10.0,4.1,60.0,5.1,'1111122,1111122,1111122' 
WAVCIS,ioos:station:WAVCIS:CSI06:1,2017-12-01T06:00:00Z,28.8667,-90.4833,10.0,3.1,30.0,3.6,'1111122,1111122,1111122' 
WAVCIS,ioos:station:WAVCIS:CSI06:1,2017-12-01T07:00:00Z,28.8667,-90.4833,10.0,4.6,10.0,5.7,'1111122,1111122,1111122' 
WAVCIS,ioos:station:WAVCIS:CSI06:1,2017-12-01T08:00:00Z,28.8667,-90.4833,10.0,4.6,10.0,7.2,'1111122,1111122,1111122' 
WAVCIS,ioos:station:WAVCIS:CSI06:1,2017-12-01T09:00:00Z,28.8667,-90.4833,10.0,7.7,10.0,9.3,'1111122,1111122,1111122' 
WAVCIS,ioos:station:WAVCIS:CSI06:1,2017-12-01T10:00:00Z,28.8667,-90.4833,10.0,7.2,20.0,8.2,'1111122,1111122,1111122' 
WAVCIS,ioos:station:WAVCIS:CSI06:1,2017-12-01T11:00:00Z,28.8667,-90.4833,10.0,6.2,30.0,7.7,'1111122,1111122,1111122' 
WAVCIS,ioos:station:WAVCIS:CSI06:1,2017-12-01T12:00:00Z,28.8667,-90.4833,10.0,4.6,60.0,5.7,'1111122,1111122,1111122' 
WAVCIS,ioos:station:WAVCIS:CSI06:1,2017-12-01T13:00:00Z,28.8667,-90.4833,10.0,4.1,40.0,5.7,'1111122,1111122,1111122' 
WAVCIS,ioos:station:WAVCIS:CSI06:1,2017-12-01T14:00:00Z,28.8667,-90.4833,10.0,4.1,40.0,5.1,'1111122,1111122,1111122' 
WAVCIS,ioos:station:WAVCIS:CSI06:1,2017-12-01T15:00:00Z,28.8667,-90.4833,10.0,4.1,40.0,5.7,'1111122,1111122,1111122' 
WAVCIS,ioos:station:WAVCIS:CSI06:1,2017-12-01T16:00:00Z,28.8667,-90.4833,10.0,3.6,30.0,4.6,'11111222,11111222,11111222' 
WAVCIS,ioos:station:WAVCIS:CSI06:1,2017-12-01T17:00:00Z,28.8667,-90.4833,10.0,2.6,30.0,4.1,'1111122,1111122,1111122' 
WAVCIS,ioos:station:WAVCIS:CSI06:1,2017-12-01T18:00:00Z,28.8667,-90.4833,10.0,2.6,20.0,3.1,'1111122,1111122,1111122' 
WAVCIS,ioos:station:WAVCIS:CSI06:1,2017-12-01T19:00:00Z,28.8667,-90.4833,10.0,1.0,20.0,1.5,'1111122,1111122,1111122' 
WAVCIS,ioos:station:WAVCIS:CSI06:1,2017-12-01T20:00:00Z,28.8667,-90.4833,10.0,2.6,20.0,3.1,'1111122,1111122,1111122' 
WAVCIS,ioos:station:WAVCIS:CSI06:1,2017-12-01T21:00:00Z,28.8667,-90.4833,10.0,2.6,30.0,3.1,'1111122,1111122,1111122' 
WAVCIS,ioos:station:WAVCIS:CSI06:1,2017-12-01T22:00:00Z,28.8667,-90.4833,10.0,1.0,50.0,2.6,'1111122,1111122,1111122' 
WAVCIS,ioos:station:WAVCIS:CSI06:1,2017-12-01T23:00:00Z,28.8667,-90.4833,10.0,2.1,80.0,2.6,'1111122,1111122,1111122' 
WAVCIS,ioos:station:WAVCIS:CSI06:1,2017-12-02T00:00:00Z,28.8667,-90.4833,10.0,2.6,100.0,3.1,'11111222,11111222,11111222' 
WAVCIS,ioos:station:WAVCIS:CSI06:1,2017-12-02T01:00:00Z,28.8667,-90.4833,10.0,2.1,100.0,2.6,'1111122,1111122,1111122' 
WAVCIS,ioos:station:WAVCIS:CSI06:1,2017-12-02T02:00:00Z,28.8667,-90.4833,10.0,2.1,70.0,2.6,'1111122,1111122,1111122' 
WAVCIS,ioos:station:WAVCIS:CSI06:1,2017-12-02T03:00:00Z,28.8667,-90.4833,10.0,2.1,90.0,2.6,'1111122,1111122,1111122' 
WAVCIS,ioos:station:WAVCIS:CSI06:1,2017-12-02T04:00:00Z,28.8667,-90.4833,10.0,3.1,110.0,3.6,'1111122,1111122,1111122' 
WAVCIS,ioos:station:WAVCIS:CSI06:1,2017-12-02T05:00:00Z,28.8667,-90.4833,10.0,3.6,100.0,4.1,'1111122,1111122,1111122' 
WAVCIS,ioos:station:WAVCIS:CSI06:1,2017-12-02T06:00:00Z,28.8667,-90.4833,10.0,2.1,90.0,2.6,'11111222,11111222,11111222' 
WAVCIS,ioos:station:WAVCIS:CSI06:1,2017-12-02T07:00:00Z,28.8667,-90.4833,10.0,1.5,90.0,2.1,'1111122,1111122,1111122' 
WAVCIS,ioos:station:WAVCIS:CSI06:1,2017-12-02T08:00:00Z,28.8667,-90.4833,10.0,3.1,80.0,3.6,'11111222,11111222,11111222' 
WAVCIS,ioos:station:WAVCIS:CSI06:1,2017-12-02T09:00:00Z,28.8667,-90.4833,10.0,2.6,70.0,3.1,'1111122,1111122,1111122' 
WAVCIS,ioos:station:WAVCIS:CSI06:1,2017-12-02T10:00:00Z,28.8667,-90.4833,10.0,3.1,50.0,4.1,'1111122,1111122,1111122' 
WAVCIS,ioos:station:WAVCIS:CSI06:1,2017-12-02T11:00:00Z,28.8667,-90.4833,10.0,4.1,60.0,4.6,'1111122,1111122,1111122' 
WAVCIS,ioos:station:WAVCIS:CSI06:1,2017-12-02T12:00:00Z,28.8667,-90.4833,10.0,3.6,60.0,4.1,'1111122,1111122,1111122' 
WAVCIS,ioos:station:WAVCIS:CSI06:1,2017-12-02T13:00:00Z,28.8667,-90.4833,10.0,6.2,60.0,6.7,'1111122,1111122,1111122' 
WAVCIS,ioos:station:WAVCIS:CSI06:1,2017-12-02T14:00:00Z,28.8667,-90.4833,10.0,7.2,50.0,8.2,'11111222,11111222,11111222' 
WAVCIS,ioos:station:WAVCIS:CSI06:1,2017-12-02T15:00:00Z,28.8667,-90.4833,10.0,7.2,60.0,8.2,'1111122,1111122,1111122' 
WAVCIS,ioos:station:WAVCIS:CSI06:1,2017-12-02T16:00:00Z,28.8667,-90.4833,10.0,6.7,60.0,7.2,'1111122,1111122,1111122' 
WAVCIS,ioos:station:WAVCIS:CSI06:1,2017-12-02T17:00:00Z,28.8667,-90.4833,10.0,5.1,60.0,6.2,'1111122,1111122,1111122' 
WAVCIS,ioos:station:WAVCIS:CSI06:1,2017-12-02T18:00:00Z,28.8667,-90.4833,10.0,3.6,60.0,4.6,'1111122,1111122,1111122' 
WAVCIS,ioos:station:WAVCIS:CSI06:1,2017-12-02T19:00:00Z,28.8667,-90.4833,10.0,4.6,50.0,5.7,'1111122,1111122,1111122' 
WAVCIS,ioos:station:WAVCIS:CSI06:1,2017-12-02T20:00:00Z,28.8667,-90.4833,10.0,2.6,40.0,4.6,'1111122,1111122,1111122' 
WAVCIS,ioos:station:WAVCIS:CSI06:1,2017-12-02T21:00:00Z,28.8667,-90.4833,10.0,2.6,60.0,3.6,'1111122,1111122,1111122' 
WAVCIS,ioos:station:WAVCIS:CSI06:1,2017-12-02T22:00:00Z,28.8667,-90.4833,10.0,3.6,60.0,4.6,'11111222,11111222,11111222' 
WAVCIS,ioos:station:WAVCIS:CSI06:1,2017-12-02T23:00:00Z,28.8667,-90.4833,10.0,4.1,70.0,5.1,'1111122,1111122,1111122' 
WAVCIS,ioos:station:WAVCIS:CSI06:1,2017-12-03T00:00:00Z,28.8667,-90.4833,10.0,5.1,60.0,6.2,'1111122,1111122,1111122' 
WAVCIS,ioos:station:WAVCIS:CSI06:1,2017-12-03T01:00:00Z,28.8667,-90.4833,10.0,4.6,70.0,5.1,'1111122,1111122,1111122' 
WAVCIS,ioos:station:WAVCIS:CSI06:1,2017-12-03T02:00:00Z,28.8667,-90.4833,10.0,3.6,80.0,4.1,'1111122,1111122,1111122' 
WAVCIS,ioos:station:WAVCIS:CSI06:1,2017-12-03T03:00:00Z,28.8667,-90.4833,10.0,3.6,80.0,4.1,'1111122,1111122,1111122' 
WAVCIS,ioos:station:WAVCIS:CSI06:1,2017-12-03T04:00:00Z,28.8667,-90.4833,10.0,3.6,90.0,4.6,'1111122,1111122,1111122' 
WAVCIS,ioos:station:WAVCIS:CSI06:1,2017-12-03T05:00:00Z,28.8667,-90.4833,10.0,3.1,100.0,4.1,'1111122,1111122,1111122' 
WAVCIS,ioos:station:WAVCIS:CSI06:1,2017-12-03T06:00:00Z,28.8667,-90.4833,10.0,2.1,90.0,2.6,'1111122,1111122,1111122' 
WAVCIS,ioos:station:WAVCIS:CSI06:1,2017-12-03T07:00:00Z,28.8667,-90.4833,10.0,1.5,100.0,2.1,'1111122,1111122,1111122' 
WAVCIS,ioos:station:WAVCIS:CSI06:1,2017-12-03T08:00:00Z,28.8667,-90.4833,10.0,1.5,110.0,1.5,'1111122,1111122,1111122' 
WAVCIS,ioos:station:WAVCIS:CSI06:1,2017-12-03T09:00:00Z,28.8667,-90.4833,10.0,1.5,40.0,3.1,'1111122,1111122,1111122' 
WAVCIS,ioos:station:WAVCIS:CSI06:1,2017-12-03T10:00:00Z,28.8667,-90.4833,10.0,3.1,30.0,4.6,'1111122,1111122,1111122' 
WAVCIS,ioos:station:WAVCIS:CSI06:1,2017-12-03T11:00:00Z,28.8667,-90.4833,10.0,3.1,40.0,4.1,'1111122,1111122,1111122' 
WAVCIS,ioos:station:WAVCIS:CSI06:1,2017-12-03T12:00:00Z,28.8667,-90.4833,10.0,2.1,50.0,4.1,'1111122,1111122,1111122' 
WAVCIS,ioos:station:WAVCIS:CSI06:1,2017-12-03T13:00:00Z,28.8667,-90.4833,10.0,3.1,40.0,4.6,'1111122,1111122,1111122' 
WAVCIS,ioos:station:WAVCIS:CSI06:1,2017-12-03T14:00:00Z,28.8667,-90.4833,10.0,5.1,40.0,7.2,'1111122,1111122,1111122' 
WAVCIS,ioos:station:WAVCIS:CSI06:1,2017-12-03T15:00:00Z,28.8667,-90.4833,10.0,5.7,50.0,7.2,'1111122,1111122,1111122' 
WAVCIS,ioos:station:WAVCIS:CSI06:1,2017-12-03T16:00:00Z,28.8667,-90.4833,10.0,6.2,60.0,6.7,'1111122,1111122,1111122' 
WAVCIS,ioos:station:WAVCIS:CSI06:1,2017-12-03T17:00:00Z,28.8667,-90.4833,10.0,6.7,60.0,7.7,'1111122,1111122,1111122' 
WAVCIS,ioos:station:WAVCIS:CSI06:1,2017-12-03T18:00:00Z,28.8667,-90.4833,10.0,5.1,50.0,7.2,'1111122,1111122,1111122' 
WAVCIS,ioos:station:WAVCIS:CSI06:1,2017-12-03T19:00:00Z,28.8667,-90.4833,10.0,5.1,50.0,6.7,'1111122,1111122,1111122' 
WAVCIS,ioos:station:WAVCIS:CSI06:1,2017-12-03T20:00:00Z,28.8667,-90.4833,10.0,4.6,60.0,5.7,'1111122,1111122,1111122' 
WAVCIS,ioos:station:WAVCIS:CSI06:1,2017-12-03T21:00:00Z,28.8667,-90.4833,10.0,4.6,60.0,5.7,'1111122,1111122,1111122' 
WAVCIS,ioos:station:WAVCIS:CSI06:1,2017-12-03T22:00:00Z,28.8667,-90.4833,10.0,5.1,80.0,5.7,'1111122,1111122,1111122' 
WAVCIS,ioos:station:WAVCIS:CSI06:1,2017-12-03T23:00:00Z,28.8667,-90.4833,10.0,5.7,80.0,6.2,'1111122,1111122,1111122' 
WAVCIS,ioos:station:WAVCIS:CSI06:1,2017-12-04T00:00:00Z,28.8667,-90.4833,10.0,5.7,90.0,6.7,'11111222,11111222,11111222' 
WAVCIS,ioos:station:WAVCIS:CSI06:1,2017-12-04T01:00:00Z,28.8667,-90.4833,10.0,7.2,90.0,7.7,'11111222,11111222,11111222' 
WAVCIS,ioos:station:WAVCIS:CSI06:1,2017-12-04T02:00:00Z,28.8667,-90.4833,10.0,8.2,90.0,8.8,'1111122,1111122,1111122' 
WAVCIS,ioos:station:WAVCIS:CSI06:1,2017-12-04T03:00:00Z,28.8667,-90.4833,10.0,6.2,80.0,6.7,'1111122,1111122,1111122' 
WAVCIS,ioos:station:WAVCIS:CSI06:1,2017-12-04T04:00:00Z,28.8667,-90.4833,10.0,5.7,90.0,6.7,'1111122,1111122,1111122' 
WAVCIS,ioos:station:WAVCIS:CSI06:1,2017-12-04T05:00:00Z,28.8667,-90.4833,10.0,6.2,90.0,7.2,'1111122,1111122,1111122' 
WAVCIS,ioos:station:WAVCIS:CSI06:1,2017-12-04T06:00:00Z,28.8667,-90.4833,10.0,6.7,100.0,7.7,'1111122,1111122,1111122' 
WAVCIS,ioos:station:WAVCIS:CSI06:1,2017-12-04T07:00:00Z,28.8667,-90.4833,10.0,6.7,110.0,7.7,'1111122,1111122,1111122' 
WAVCIS,ioos:station:WAVCIS:CSI06:1,2017-12-04T08:00:00Z,28.8667,-90.4833,10.0,6.2,120.0,6.7,'1111122,1111122,1111122' 
WAVCIS,ioos:station:WAVCIS:CSI06:1,2017-12-04T09:00:00Z,28.8667,-90.4833,10.0,6.7,130.0,7.2,'1111122,1111122,1111122' 
WAVCIS,ioos:station:WAVCIS:CSI06:1,2017-12-04T10:00:00Z,28.8667,-90.4833,10.0,6.2,120.0,6.7,'1111122,1111122,1111122' 
WAVCIS,ioos:station:WAVCIS:CSI06:1,2017-12-04T11:00:00Z,28.8667,-90.4833,10.0,5.1,120.0,6.2,'1111122,1111122,1111122' 
WAVCIS,ioos:station:WAVCIS:CSI06:1,2017-12-04T12:00:00Z,28.8667,-90.4833,10.0,6.2,110.0,7.2,'1111122,1111122,1111122' 
WAVCIS,ioos:station:WAVCIS:CSI06:1,2017-12-04T13:00:00Z,28.8667,-90.4833,10.0,6.2,110.0,7.2,'1111122,1111122,1111122' 
WAVCIS,ioos:station:WAVCIS:CSI06:1,2017-12-04T14:00:00Z,28.8667,-90.4833,10.0,5.1,160.0,5.7,'1111122,1111122,1111122' 
WAVCIS,ioos:station:WAVCIS:CSI06:1,2017-12-04T15:00:00Z,28.8667,-90.4833,10.0,4.6,140.0,5.7,'1111122,1111122,1111122' 
WAVCIS,ioos:station:WAVCIS:CSI06:1,2017-12-04T16:00:00Z,28.8667,-90.4833,10.0,5.1,150.0,5.7,'1111122,1111122,1111122' 
WAVCIS,ioos:station:WAVCIS:CSI06:1,2017-12-04T17:00:00Z,28.8667,-90.4833,10.0,5.1,150.0,5.7,'1111122,1111122,1111122' 
WAVCIS,ioos:station:WAVCIS:CSI06:1,2017-12-04T18:00:00Z,28.8667,-90.4833,10.0,4.6,140.0,5.1,'1111122,1111122,1111122' 
WAVCIS,ioos:station:WAVCIS:CSI06:1,2017-12-04T19:00:00Z,28.8667,-90.4833,10.0,5.1,130.0,5.7,'1111122,1111122,1111122' 
WAVCIS,ioos:station:WAVCIS:CSI06:1,2017-12-04T20:00:00Z,28.8667,-90.4833,10.0,6.2,140.0,6.7,'1111122,1111122,1111122' 
WAVCIS,ioos:station:WAVCIS:CSI06:1,2017-12-04T21:00:00Z,28.8667,-90.4833,10.0,5.7,140.0,6.7,'1111122,1111122,1111122' 
WAVCIS,ioos:station:WAVCIS:CSI06:1,2017-12-04T22:00:00Z,28.8667,-90.4833,10.0,6.7,130.0,7.2,'1111122,1111122,1111122' 
WAVCIS,ioos:station:WAVCIS:CSI06:1,2017-12-04T23:00:00Z,28.8667,-90.4833,10.0,6.7,140.0,7.7,'1111122,1111122,1111122' 
WAVCIS,ioos:station:WAVCIS:CSI06:1,2017-12-05T00:00:00Z,28.8667,-90.4833,10.0,6.7,140.0,7.2,'1111122,1111122,1111122' 
WAVCIS,ioos:station:WAVCIS:CSI06:1,2017-12-05T01:00:00Z,28.8667,-90.4833,10.0,6.7,140.0,7.2,'1111122,1111122,1111122' 
WAVCIS,ioos:station:WAVCIS:CSI06:1,2017-12-05T02:00:00Z,28.8667,-90.4833,10.0,6.7,140.0,7.7,'1111122,1111122,1111122' 
WAVCIS,ioos:station:WAVCIS:CSI06:1,2017-12-05T03:00:00Z,28.8667,-90.4833,10.0,8.8,140.0,9.3,'11111222,11111222,11111222' 
WAVCIS,ioos:station:WAVCIS:CSI06:1,2017-12-05T04:00:00Z,28.8667,-90.4833,10.0,9.3,140.0,9.8,'1111122,1111122,1111122' 
WAVCIS,ioos:station:WAVCIS:CSI06:1,2017-12-05T05:00:00Z,28.8667,-90.4833,10.0,8.2,140.0,9.3,'1111122,1111122,1111122' 
WAVCIS,ioos:station:WAVCIS:CSI06:1,2017-12-05T06:00:00Z,28.8667,-90.4833,10.0,7.7,150.0,8.8,'1111122,1111122,1111122' 
WAVCIS,ioos:station:WAVCIS:CSI06:1,2017-12-05T07:00:00Z,28.8667,-90.4833,10.0,7.7,150.0,8.8,'1111122,1111122,1111122' 
WAVCIS,ioos:station:WAVCIS:CSI06:1,2017-12-05T08:00:00Z,28.8667,-90.4833,10.0,7.2,150.0,7.7,'1111122,1111122,1111122' 
WAVCIS,ioos:station:WAVCIS:CSI06:1,2017-12-05T09:00:00Z,28.8667,-90.4833,10.0,7.7,150.0,8.8,'1111122,1111122,1111122' 
WAVCIS,ioos:station:WAVCIS:CSI06:1,2017-12-05T10:00:00Z,28.8667,-90.4833,10.0,6.2,160.0,7.2,'1111122,1111122,1111122' 
WAVCIS,ioos:station:WAVCIS:CSI06:1,2017-12-05T11:00:00Z,28.8667,-90.4833,10.0,4.6,170.0,5.1,'1111122,1111122,1111122' 
WAVCIS,ioos:station:WAVCIS:CSI06:1,2017-12-05T12:00:00Z,28.8667,-90.4833,10.0,5.7,160.0,6.2,'1111122,1111122,1111122' 
WAVCIS,ioos:station:WAVCIS:CSI06:1,2017-12-05T13:00:00Z,28.8667,-90.4833,10.0,5.7,160.0,5.7,'1111122,1111122,1111122' 
WAVCIS,ioos:station:WAVCIS:CSI06:1,2017-12-05T14:00:00Z,28.8667,-90.4833,10.0,4.6,160.0,5.1,'1111122,1111122,1111122' 
WAVCIS,ioos:station:WAVCIS:CSI06:1,2017-12-05T15:00:00Z,28.8667,-90.4833,10.0,5.7,160.0,5.7,'1111122,1111122,1111122' 
WAVCIS,ioos:station:WAVCIS:CSI06:1,2017-12-05T16:00:00Z,28.8667,-90.4833,10.0,4.6,160.0,4.6,'1111122,1111122,1111122' 
WAVCIS,ioos:station:WAVCIS:CSI06:1,2017-12-05T17:00:00Z,28.8667,-90.4833,10.0,4.1,170.0,4.6,'1111122,1111122,1111122' 
WAVCIS,ioos:station:WAVCIS:CSI06:1,2017-12-05T18:00:00Z,28.8667,-90.4833,10.0,3.1,180.0,3.6,'1111122,1111122,1111122' 
WAVCIS,ioos:station:WAVCIS:CSI06:1,2017-12-05T19:00:00Z,28.8667,-90.4833,10.0,4.1,170.0,4.6,'1111122,1111122,1111122' 
WAVCIS,ioos:station:WAVCIS:CSI06:1,2017-12-05T20:00:00Z,28.8667,-90.4833,10.0,4.6,180.0,5.1,'1111122,1111122,1111122' 
WAVCIS,ioos:station:WAVCIS:CSI06:1,2017-12-05T21:00:00Z,28.8667,-90.4833,10.0,3.6,190.0,4.1,'1111122,1111122,1111122' 
WAVCIS,ioos:station:WAVCIS:CSI06:1,2017-12-05T22:00:00Z,28.8667,-90.4833,10.0,4.1,200.0,4.6,'1111122,1111122,1111122' 
WAVCIS,ioos:station:WAVCIS:CSI06:1,2017-12-05T23:00:00Z,28.8667,-90.4833,10.0,3.1,180.0,3.6,'1111122,1111122,1111122' 
WAVCIS,ioos:station:WAVCIS:CSI06:1,2017-12-06T00:00:00Z,28.8667,-90.4833,10.0,2.1,180.0,2.6,'1111122,1111122,1111122' 
WAVCIS,ioos:station:WAVCIS:CSI06:1,2017-12-06T01:00:00Z,28.8667,-90.4833,10.0,3.1,210.0,3.1,'1111122,1111122,1111122' 
WAVCIS,ioos:station:WAVCIS:CSI06:1,2017-12-06T02:00:00Z,28.8667,-90.4833,10.0,2.1,190.0,2.1,'1111122,1111122,1111122' 
WAVCIS,ioos:station:WAVCIS:CSI06:1,2017-12-06T03:00:00Z,28.8667,-90.4833,10.0,1.0,250.0,1.5,'1111122,1111122,1111122' 
WAVCIS,ioos:station:WAVCIS:CSI06:1,2017-12-06T04:00:00Z,28.8667,-90.4833,10.0,10.8,30.0,12.4,'1111122,1111122,1111122' 
WAVCIS,ioos:station:WAVCIS:CSI06:1,2017-12-06T05:00:00Z,28.8667,-90.4833,10.0,10.3,30.0,11.8,'1111122,1111122,1111122' 
WAVCIS,ioos:station:WAVCIS:CSI06:1,2017-12-06T06:00:00Z,28.8667,-90.4833,10.0,10.3,30.0,11.8,'1111122,1111122,1111122' 
WAVCIS,ioos:station:WAVCIS:CSI06:1,2017-12-06T07:00:00Z,28.8667,-90.4833,10.0,10.3,30.0,11.8,'1111122,1111122,1111122' 
WAVCIS,ioos:station:WAVCIS:CSI06:1,2017-12-06T08:00:00Z,28.8667,-90.4833,10.0,8.8,50.0,10.8,'11111222,11111222,11111222' 
WAVCIS,ioos:station:WAVCIS:CSI06:1,2017-12-06T09:00:00Z,28.8667,-90.4833,10.0,9.3,40.0,10.8,'1111122,1111122,1111122' 
WAVCIS,ioos:station:WAVCIS:CSI06:1,2017-12-06T10:00:00Z,28.8667,-90.4833,10.0,9.3,50.0,11.8,'1111122,1111122,1111122' 
WAVCIS,ioos:station:WAVCIS:CSI06:1,2017-12-06T11:00:00Z,28.8667,-90.4833,10.0,9.3,40.0,11.3,'1111122,1111122,1111122' 
WAVCIS,ioos:station:WAVCIS:CSI06:1,2017-12-06T12:00:00Z,28.8667,-90.4833,10.0,8.8,40.0,11.8,'1111122,1111122,1111122' 
WAVCIS,ioos:station:WAVCIS:CSI06:1,2017-12-06T13:00:00Z,28.8667,-90.4833,10.0,12.9,20.0,15.4,'1111122,1111122,1111122' 
WAVCIS,ioos:station:WAVCIS:CSI06:1,2017-12-06T14:00:00Z,28.8667,-90.4833,10.0,12.9,30.0,16.0,'1111122,1111122,1111122' 
WAVCIS,ioos:station:WAVCIS:CSI06:1,2017-12-06T15:00:00Z,28.8667,-90.4833,10.0,13.9,20.0,16.5,'1111122,1111122,1111122' 
WAVCIS,ioos:station:WAVCIS:CSI06:1,2017-12-06T16:00:00Z,28.8667,-90.4833,10.0,16.0,20.0,19.0,'1111122,1111122,1111122' 
WAVCIS,ioos:station:WAVCIS:CSI06:1,2017-12-06T17:00:00Z,28.8667,-90.4833,10.0,17.0,30.0,19.0,'1111122,1111122,1111122' 
WAVCIS,ioos:station:WAVCIS:CSI06:1,2017-12-06T18:00:00Z,28.8667,-90.4833,10.0,16.0,40.0,20.1,'1111122,1111122,1111122' 
WAVCIS,ioos:station:WAVCIS:CSI06:1,2017-12-06T19:00:00Z,28.8667,-90.4833,10.0,14.9,50.0,17.0,'1111122,1111122,1111122' 
WAVCIS,ioos:station:WAVCIS:CSI06:1,2017-12-06T20:00:00Z,28.8667,-90.4833,10.0,13.4,50.0,16.5,'1111122,1111122,1111122' 
WAVCIS,ioos:station:WAVCIS:CSI06:1,2017-12-06T21:00:00Z,28.8667,-90.4833,10.0,12.4,40.0,15.4,'1111122,1111122,1111122' 
WAVCIS,ioos:station:WAVCIS:CSI06:1,2017-12-06T22:00:00Z,28.8667,-90.4833,10.0,13.4,30.0,17.0,'1111122,1111122,1111122' 
WAVCIS,ioos:station:WAVCIS:CSI06:1,2017-12-06T23:00:00Z,28.8667,-90.4833,10.0,14.4,20.0,17.0,'1111122,1111122,1111122' 
WAVCIS,ioos:station:WAVCIS:CSI06:1,2017-12-07T00:00:00Z,28.8667,-90.4833,10.0,16.0,20.0,20.1,'1111122,1111122,1111122' 
WAVCIS,ioos:station:WAVCIS:CSI06:1,2017-12-07T01:00:00Z,28.8667,-90.4833,10.0,15.4,20.0,19.0,'1111122,1111122,1111122' 
WAVCIS,ioos:station:WAVCIS:CSI06:1,2017-12-07T02:00:00Z,28.8667,-90.4833,10.0,17.5,30.0,20.1,'1111122,1111122,1111122' 
WAVCIS,ioos:station:WAVCIS:CSI06:1,2017-12-07T03:00:00Z,28.8667,-90.4833,10.0,18.0,30.0,21.1,'1111122,1111122,1111122' 
WAVCIS,ioos:station:WAVCIS:CSI06:1,2017-12-07T04:00:00Z,28.8667,-90.4833,10.0,16.5,50.0,19.6,'1111122,1111122,1111122' 
WAVCIS,ioos:station:WAVCIS:CSI06:1,2017-12-07T05:00:00Z,28.8667,-90.4833,10.0,16.0,50.0,20.1,'1111122,1111122,1111122' 
WAVCIS,ioos:station:WAVCIS:CSI06:1,2017-12-07T06:00:00Z,28.8667,-90.4833,10.0,15.4,40.0,18.5,'1111122,1111122,1111122' 
WAVCIS,ioos:station:WAVCIS:CSI06:1,2017-12-07T07:00:00Z,28.8667,-90.4833,10.0,14.9,40.0,18.5,'1111122,1111122,1111122' 
WAVCIS,ioos:station:WAVCIS:CSI06:1,2017-12-07T08:00:00Z,28.8667,-90.4833,10.0,16.0,30.0,19.0,'1111122,1111122,1111122' 
WAVCIS,ioos:station:WAVCIS:CSI06:1,2017-12-07T09:00:00Z,28.8667,-90.4833,10.0,15.4,40.0,20.6,'1111122,1111122,1111122' 
WAVCIS,ioos:station:WAVCIS:CSI06:1,2017-12-07T10:00:00Z,28.8667,-90.4833,10.0,14.9,40.0,18.5,'1111122,1111122,1111122' 
WAVCIS,ioos:station:WAVCIS:CSI06:1,2017-12-07T11:00:00Z,28.8667,-90.4833,10.0,15.4,40.0,18.5,'1111122,1111122,1111122' 
WAVCIS,ioos:station:WAVCIS:CSI06:1,2017-12-07T12:00:00Z,28.8667,-90.4833,10.0,14.4,40.0,18.5,'1111122,1111122,1111122' 
WAVCIS,ioos:station:WAVCIS:CSI06:1,2017-12-07T13:00:00Z,28.8667,-90.4833,10.0,14.4,40.0,17.5,'1111122,1111122,1111122' 
WAVCIS,ioos:station:WAVCIS:CSI06:1,2017-12-07T14:00:00Z,28.8667,-90.4833,10.0,13.4,40.0,17.0,'1111122,1111122,1111122' 
WAVCIS,ioos:station:WAVCIS:CSI06:1,2017-12-07T15:00:00Z,28.8667,-90.4833,10.0,13.4,40.0,17.0,'1111122,1111122,1111122' 
WAVCIS,ioos:station:WAVCIS:CSI06:1,2017-12-07T16:00:00Z,28.8667,-90.4833,10.0,14.4,40.0,17.0,'1111122,1111122,1111122' 
WAVCIS,ioos:station:WAVCIS:CSI06:1,2017-12-07T17:00:00Z,28.8667,-90.4833,10.0,16.5,30.0,20.6,'1111122,1111122,1111122' 
WAVCIS,ioos:station:WAVCIS:CSI06:1,2017-12-07T18:00:00Z,28.8667,-90.4833,10.0,16.0,40.0,19.6,'1111122,1111122,1111122' 
WAVCIS,ioos:station:WAVCIS:CSI06:1,2017-12-07T19:00:00Z,28.8667,-90.4833,10.0,16.0,40.0,19.6,'1111122,1111122,1111122' 
WAVCIS,ioos:station:WAVCIS:CSI06:1,2017-12-07T20:00:00Z,28.8667,-90.4833,10.0,14.9,40.0,17.5,'1111122,1111122,1111122' 
WAVCIS,ioos:station:WAVCIS:CSI06:1,2017-12-07T21:00:00Z,28.8667,-90.4833,10.0,16.0,50.0,20.1,'11111222,11111222,11111222' 
WAVCIS,ioos:station:WAVCIS:CSI06:1,2017-12-07T22:00:00Z,28.8667,-90.4833,10.0,13.9,40.0,17.5,'1111122,1111122,1111122' 
WAVCIS,ioos:station:WAVCIS:CSI06:1,2017-12-07T23:00:00Z,28.8667,-90.4833,10.0,17.5,50.0,19.6,'1111122,1111122,1111122' 
WAVCIS,ioos:station:WAVCIS:CSI06:1,2017-12-08T00:00:00Z,28.8667,-90.4833,10.0,17.5,30.0,20.6,'1111122,1111122,1111122' 
WAVCIS,ioos:station:WAVCIS:CSI06:1,2017-12-08T01:00:00Z,28.8667,-90.4833,10.0,17.0,30.0,20.1,'1111122,1111122,1111122' 
WAVCIS,ioos:station:WAVCIS:CSI06:1,2017-12-08T02:00:00Z,28.8667,-90.4833,10.0,16.5,30.0,19.6,'1111122,1111122,1111122' 
WAVCIS,ioos:station:WAVCIS:CSI06:1,2017-12-08T03:00:00Z,28.8667,-90.4833,10.0,17.0,30.0,19.6,'1111122,1111122,1111122' 
WAVCIS,ioos:station:WAVCIS:CSI06:1,2017-12-08T04:00:00Z,28.8667,-90.4833,10.0,17.5,30.0,21.1,'1111122,1111122,1111122' 
WAVCIS,ioos:station:WAVCIS:CSI06:1,2017-12-08T05:00:00Z,28.8667,-90.4833,10.0,17.5,30.0,20.1,'1111122,1111122,1111122' 
WAVCIS,ioos:station:WAVCIS:CSI06:1,2017-12-08T06:00:00Z,28.8667,-90.4833,10.0,19.0,30.0,21.6,'1111122,1111122,1111122' 
WAVCIS,ioos:station:WAVCIS:CSI06:1,2017-12-08T07:00:00Z,28.8667,-90.4833,10.0,18.0,30.0,20.6,'1111122,1111122,1111122' 
WAVCIS,ioos:station:WAVCIS:CSI06:1,2017-12-08T08:00:00Z,28.8667,-90.4833,10.0,18.5,30.0,21.6,'1111122,1111122,1111122' 
WAVCIS,ioos:station:WAVCIS:CSI06:1,2017-12-08T09:00:00Z,28.8667,-90.4833,10.0,16.5,30.0,19.6,'11111222,11111222,11111222' 
WAVCIS,ioos:station:WAVCIS:CSI06:1,2017-12-08T10:00:00Z,28.8667,-90.4833,10.0,14.9,10.0,20.1,'1111122,1111122,1111122' 
WAVCIS,ioos:station:WAVCIS:CSI06:1,2017-12-08T11:00:00Z,28.8667,-90.4833,10.0,12.9,10.0,18.5,'1111122,1111122,1111122' 
WAVCIS,ioos:station:WAVCIS:CSI06:1,2017-12-08T12:00:00Z,28.8667,-90.4833,10.0,11.3,360.0,16.5,'1111122,1111122,1111122' 
WAVCIS,ioos:station:WAVCIS:CSI06:1,2017-12-08T13:00:00Z,28.8667,-90.4833,10.0,16.0,10.0,20.1,'1111122,1111122,1111122' 
WAVCIS,ioos:station:WAVCIS:CSI06:1,2017-12-08T14:00:00Z,28.8667,-90.4833,10.0,15.4,10.0,20.1,'1111122,1111122,1111122' 
WAVCIS,ioos:station:WAVCIS:CSI06:1,2017-12-08T15:00:00Z,28.8667,-90.4833,10.0,15.4,20.0,19.0,'1111122,1111122,1111122' 
WAVCIS,ioos:station:WAVCIS:CSI06:1,2017-12-08T16:00:00Z,28.8667,-90.4833,10.0,11.3,10.0,17.0,'11111222,11111222,11111222' 
WAVCIS,ioos:station:WAVCIS:CSI06:1,2017-12-08T17:00:00Z,28.8667,-90.4833,10.0,10.3,360.0,16.0,'1111122,1111122,1111122' 
WAVCIS,ioos:station:WAVCIS:CSI06:1,2017-12-08T18:00:00Z,28.8667,-90.4833,10.0,9.3,10.0,13.9,'1111122,1111122,1111122' 
WAVCIS,ioos:station:WAVCIS:CSI06:1,2017-12-08T19:00:00Z,28.8667,-90.4833,10.0,10.3,10.0,15.4,'1111122,1111122,1111122' 
WAVCIS,ioos:station:WAVCIS:CSI06:1,2017-12-08T20:00:00Z,28.8667,-90.4833,10.0,8.8,350.0,13.9,'1111122,1111122,1111122' 
WAVCIS,ioos:station:WAVCIS:CSI06:1,2017-12-08T21:00:00Z,28.8667,-90.4833,10.0,9.3,360.0,13.9,'1111122,1111122,1111122' 
WAVCIS,ioos:station:WAVCIS:CSI06:1,2017-12-08T22:00:00Z,28.8667,-90.4833,10.0,8.2,360.0,11.8,'1111122,1111122,1111122' 
WAVCIS,ioos:station:WAVCIS:CSI06:1,2017-12-08T23:00:00Z,28.8667,-90.4833,10.0,9.3,350.0,13.9,'1111122,1111122,1111122' 
WAVCIS,ioos:station:WAVCIS:CSI06:1,2017-12-09T00:00:00Z,28.8667,-90.4833,10.0,7.7,350.0,11.3,'1111122,1111122,1111122' 
WAVCIS,ioos:station:WAVCIS:CSI06:1,2017-12-09T01:00:00Z,28.8667,-90.4833,10.0,7.2,360.0,10.3,'1111122,1111122,1111122' 
WAVCIS,ioos:station:WAVCIS:CSI06:1,2017-12-09T02:00:00Z,28.8667,-90.4833,10.0,7.7,350.0,11.8,'1111122,1111122,1111122' 
WAVCIS,ioos:station:WAVCIS:CSI06:1,2017-12-09T03:00:00Z,28.8667,-90.4833,10.0,9.3,340.0,11.3,'1111122,1111122,1111122' 
WAVCIS,ioos:station:WAVCIS:CSI06:1,2017-12-09T04:00:00Z,28.8667,-90.4833,10.0,9.3,340.0,12.9,'1111122,1111122,1111122' 
WAVCIS,ioos:station:WAVCIS:CSI06:1,2017-12-09T05:00:00Z,28.8667,-90.4833,10.0,10.8,340.0,14.4,'1111122,1111122,1111122' 
WAVCIS,ioos:station:WAVCIS:CSI06:1,2017-12-09T06:00:00Z,28.8667,-90.4833,10.0,12.9,330.0,17.0,'11111222,11111222,11111222' 
WAVCIS,ioos:station:WAVCIS:CSI06:1,2017-12-09T07:00:00Z,28.8667,-90.4833,10.0,13.4,330.0,16.5,'1111122,1111122,1111122' 